Location: Gälforsberget
(66.6500°N, 22.4167°E)
Time: 07:47:16
(UTC+00:00)

Cosmos 676 Rocket - Pass Details

Date: 11 April 2026
Orbit: 750 x 779 km, 74.0° (Epoch: 14 May)

Event Time Altitude Azimuth Distance (km) Brightness Sun altitude
Rises 23:02:39 0° 321° (NW) 3,278 7.9 -14.5°
Reaches altitude 10° 23:05:06 10° 316° (NW) 2,345 7.0 -14.5°
Maximum altitude 23:10:13 49° 243° (WSW) 999 4.3 -14.4°
Enters shadow 23:13:29 21° 177° (S) 1,685 5.2 -14.4°
